Location: ????????
(56.0167°N, 38.0333°E)
Time: 07:30:06
(UTC+00:00)

Exosat Rocket - Pass Details

Date: 19 May 2025
Orbit: 761 x 2512 km, 72.3° (Epoch: 23 June)

Event Time Altitude Azimuth Distance (km) Brightness Sun altitude
Rises 21:09:19 0° 326° (NNW) 3,422 8.0 -13.9°
Reaches altitude 10° 21:11:53 10° 321° (NW) 2,385 6.9 -14.0°
Maximum altitude 21:16:49 47° 248° (WSW) 1,002 4.0 -14.0°
Enters shadow 21:19:54 21° 184° (S) 1,687 4.6 -14.0°
